When you browse on this site, cookies collect data to enhance your experience and personalize the content and advertising you see.
Visit our Privacy Policy to learn more. By continuing to use the site, you agree to this use of cookies and data.
  • En España
  • Lista de países
  • Para 7 días
  • Temperatura del agua
  • El tiempo en el mapa
  • Informadores
  • user-avatar
    Iniciar sesión

    Tiempo cada hora Loncoche

    Hoy, 23 Enero, Jueves

    Tiempo Temperatura Precipitaciones Viento Presión Humedad
    00:00 +14°C° 0 mm 1 mps 749 mmHg 82%
    01:00 +13°C° 0 mm 1 mps 749 mmHg 89%
    02:00 +12°C° 0 mm 1 mps 749 mmHg 92%
    03:00 +12°C° 0 mm 1 mps 750 mmHg 94%
    04:00 +11°C° 0 mm 1 mps 750 mmHg 97%
    05:00 +13°C° 0 mm 1 mps 750 mmHg 91%
    06:00 +14°C° 0 mm 1 mps 751 mmHg 84%
    07:00 +16°C° 0 mm 1 mps 751 mmHg 78%
    08:00 +20°C° 0 mm 1 mps 751 mmHg 67%
    09:00 +21°C° 0 mm 2 mps 751 mmHg 56%
    10:00 +25°C° 0 mm 2 mps 752 mmHg 45%
    11:00 +26°C° 0 mm 2 mps 752 mmHg 40%
    12:00 +28°C° 0 mm 2 mps 752 mmHg 35%
    13:00 +30°C° 0 mm 2 mps 751 mmHg 30%
    14:00 +29°C° 0 mm 2 mps 751 mmHg 31%
    15:00 +29°C° 0 mm 3 mps 752 mmHg 33%
    16:00 +29°C° 0 mm 3 mps 752 mmHg 34%
    17:00 +26°C° 0 mm 2 mps 752 mmHg 44%
    18:00 +24°C° 0 mm 2 mps 752 mmHg 53%
    19:00 +21°C° 0 mm 1 mps 752 mmHg 63%
    20:00 +19°C° 0 mm 1 mps 752 mmHg 69%
    21:00 +18°C° 0 mm 1 mps 753 mmHg 75%
    22:00 +14°C° 0 mm 0 mps 753 mmHg 82%
    23:00 +13°C° 0 mm 0 mps 753 mmHg 85%

    Mañana, 24 Enero, Viernes

    Tiempo Temperatura Precipitaciones Viento Presión Humedad
    00:00 +12°C° 0 mm 0 mps 752 mmHg 88%
    01:00 +11°C° 0 mm 0 mps 752 mmHg 91%
    02:00 +10°C° 0 mm 0 mps 752 mmHg 92%
    03:00 +11°C° 0 mm 1 mps 752 mmHg 94%
    04:00 +10°C° 0 mm 1 mps 752 mmHg 95%
    05:00 +12°C° 0 mm 1 mps 752 mmHg 86%
    06:00 +14°C° 0 mm 1 mps 752 mmHg 77%
    07:00 +16°C° 0 mm 1 mps 752 mmHg 68%
    08:00 +19°C° 0 mm 1 mps 752 mmHg 56%
    09:00 +22°C° 0 mm 1 mps 752 mmHg 43%
    10:00 +25°C° 0 mm 2 mps 752 mmHg 30%
    11:00 +26°C° 0 mm 2 mps 752 mmHg 27%
    12:00 +28°C° 0 mm 2 mps 752 mmHg 25%
    13:00 +29°C° 0 mm 2 mps 752 mmHg 22%
    14:00 +28°C° 0 mm 2 mps 752 mmHg 24%
    15:00 +27°C° 0 mm 3 mps 752 mmHg 26%
    16:00 +26°C° 0 mm 3 mps 752 mmHg 29%
    17:00 +24°C° 0 mm 2 mps 752 mmHg 38%
    18:00 +20°C° 0 mm 2 mps 753 mmHg 47%
    19:00 +18°C° 0 mm 1 mps 753 mmHg 57%
    20:00 +16°C° 0 mm 1 mps 753 mmHg 65%
    21:00 +13°C° 0 mm 0 mps 753 mmHg 74%
    22:00 +11°C° 0 mm 0 mps 753 mmHg 82%
    23:00 +11°C° 0 mm 0 mps 753 mmHg 83%

    Pasado mañana, 25 Enero, Sábado

    Tiempo Temperatura Precipitaciones Viento Presión Humedad
    00:00 +11°C° 0 mm 0 mps 753 mmHg 83%
    01:00 +10°C° 0 mm 0 mps 753 mmHg 84%
    02:00 +10°C° 0 mm 0 mps 753 mmHg 85%
    03:00 +10°C° 0 mm 0 mps 753 mmHg 85%
    04:00 +10°C° 0 mm 0 mps 752 mmHg 85%
    05:00 +12°C° 0 mm 0 mps 753 mmHg 78%
    06:00 +14°C° 0 mm 0 mps 753 mmHg 70%
    07:00 +16°C° 0 mm 0 mps 753 mmHg 62%
    08:00 +20°C° 0 mm 1 mps 752 mmHg 57%
    09:00 +23°C° 0 mm 1 mps 752 mmHg 52%
    10:00 +25°C° 0 mm 2 mps 752 mmHg 48%
    11:00 +26°C° 0 mm 2 mps 752 mmHg 44%
    12:00 +27°C° 0 mm 3 mps 751 mmHg 41%
    13:00 +29°C° 0 mm 3 mps 751 mmHg 38%
    14:00 +28°C° 0 mm 3 mps 751 mmHg 41%
    15:00 +28°C° 0 mm 3 mps 751 mmHg 44%
    16:00 +27°C° 0 mm 3 mps 751 mmHg 46%
    17:00 +25°C° 0 mm 2 mps 751 mmHg 55%
    18:00 +23°C° 0 mm 2 mps 752 mmHg 64%
    19:00 +21°C° 0 mm 1 mps 752 mmHg 72%
    20:00 +19°C° 0 mm 1 mps 752 mmHg 80%
    21:00 +18°C° 0 mm 1 mps 752 mmHg 88%
    22:00 +14°C° 0 mm 0 mps 753 mmHg 96%
    23:00 +14°C° 0 mm 0 mps 752 mmHg 97%

    26 Enero, Domingo

    Tiempo Temperatura Precipitaciones Viento Presión Humedad
    00:00 +13°C° 0 mm 0 mps 752 mmHg 98%
    01:00 +13°C° 0 mm 0 mps 752 mmHg 98%
    02:00 +13°C° 0 mm 0 mps 752 mmHg 98%
    03:00 +13°C° 0 mm 0 mps 752 mmHg 99%
    04:00 +13°C° 0 mm 0 mps 752 mmHg 99%
    05:00 +14°C° 0 mm 0 mps 752 mmHg 95%
    06:00 +15°C° 0 mm 0 mps 752 mmHg 90%
    07:00 +16°C° 0 mm 0 mps 752 mmHg 86%
    08:00 +21°C° 0 mm 1 mps 752 mmHg 75%
    09:00 +23°C° 0 mm 1 mps 752 mmHg 64%
    10:00 +25°C° 0 mm 2 mps 753 mmHg 53%
    11:00 +26°C° 0 mm 2 mps 752 mmHg 49%
    12:00 +28°C° 0 mm 2 mps 752 mmHg 46%
    13:00 +29°C° 0 mm 2 mps 752 mmHg 42%
    14:00 +29°C° 0 mm 3 mps 752 mmHg 43%
    15:00 +28°C° 0 mm 3 mps 752 mmHg 43%
    16:00 +28°C° 0 mm 3 mps 752 mmHg 44%
    17:00 +26°C° 0 mm 2 mps 752 mmHg 52%
    18:00 +24°C° 0 mm 2 mps 752 mmHg 61%
    19:00 +21°C° 0 mm 1 mps 753 mmHg 69%
    20:00 +19°C° 0 mm 1 mps 753 mmHg 78%
    21:00 +16°C° 0 mm 1 mps 753 mmHg 86%
    22:00 +13°C° 0 mm 0 mps 753 mmHg 95%
    23:00 +13°C° 0 mm 0 mps 753 mmHg 95%

    27 Enero, Lunes

    Tiempo Temperatura Precipitaciones Viento Presión Humedad
    00:00 +12°C° 0 mm 0 mps 753 mmHg 96%
    01:00 +12°C° 0 mm 0 mps 753 mmHg 97%
    02:00 +11°C° 0 mm 0 mps 753 mmHg 97%
    03:00 +11°C° 0 mm 0 mps 752 mmHg 98%
    04:00 +12°C° 0 mm 1 mps 752 mmHg 98%
    05:00 +13°C° 0 mm 1 mps 752 mmHg 91%
    06:00 +14°C° 0 mm 1 mps 752 mmHg 84%
    07:00 +16°C° 0 mm 1 mps 752 mmHg 76%
    08:00 +20°C° 0 mm 1 mps 752 mmHg 62%
    09:00 +23°C° 0 mm 1 mps 751 mmHg 47%
    10:00 +26°C° 0 mm 1 mps 751 mmHg 32%
    11:00 +27°C° 0 mm 2 mps 751 mmHg 29%
    12:00 +29°C° 0 mm 2 mps 751 mmHg 25%
    13:00 +30°C° 0 mm 2 mps 751 mmHg 22%
    14:00 +30°C° 0 mm 3 mps 751 mmHg 24%
    15:00 +29°C° 0 mm 3 mps 750 mmHg 25%
    16:00 +29°C° 0 mm 3 mps 750 mmHg 27%
    17:00 +25°C° 0 mm 2 mps 751 mmHg 33%
    18:00 +21°C° 0 mm 2 mps 751 mmHg 40%
    19:00 +19°C° 0 mm 1 mps 751 mmHg 46%
    20:00 +16°C° 0 mm 1 mps 751 mmHg 55%
    21:00 +13°C° 0 mm 0 mps 751 mmHg 63%
    22:00 +11°C° 0 mm 0 mps 751 mmHg 71%
    23:00 +11°C° 0 mm 0 mps 751 mmHg 74%

    28 Enero, Martes

    Tiempo Temperatura Precipitaciones Viento Presión Humedad
    00:00 +11°C° 0 mm 0 mps 751 mmHg 76%
    01:00 +10°C° 0 mm 0 mps 751 mmHg 78%
    02:00 +10°C° 0 mm 0 mps 750 mmHg 78%
    03:00 +10°C° 0 mm 0 mps 750 mmHg 78%
    04:00 +10°C° 0 mm 0 mps 750 mmHg 78%
    05:00 +12°C° 0 mm 0 mps 750 mmHg 72%
    06:00 +14°C° 0 mm 0 mps 750 mmHg 65%
    07:00 +16°C° 0 mm 0 mps 750 mmHg 59%
    08:00 +19°C° 0 mm 0 mps 750 mmHg 56%
    09:00 +23°C° 0 mm 1 mps 750 mmHg 53%
    10:00 +26°C° 0 mm 1 mps 750 mmHg 50%
    11:00 +27°C° 0 mm 2 mps 750 mmHg 45%
    12:00 +28°C° 0 mm 2 mps 749 mmHg 40%
    13:00 +28°C° 0 mm 3 mps 749 mmHg 35%
    14:00 +26°C° 0 mm 3 mps 749 mmHg 39%
    15:00 +25°C° 0 mm 3 mps 749 mmHg 44%
    16:00 +22°C° 0 mm 4 mps 749 mmHg 48%
    17:00 +19°C° 0.6 mm 2 mps 749 mmHg 64%
    18:00 +16°C° 0.6 mm 1 mps 750 mmHg 81%
    19:00 +13°C° 0.6 mm 0 mps 750 mmHg 98%
    20:00 +13°C° 0.2 mm 0 mps 750 mmHg 98%
    21:00 +13°C° 0.2 mm 0 mps 751 mmHg 98%
    22:00 +12°C° 0.2 mm 0 mps 751 mmHg 98%
    23:00 +12°C° 0 mm 0 mps 751 mmHg 99%
    Mostrar más